Retour au catalogue

COSMOS 1275 DEB

ActifPO
NORAD 18637·DEBRIS·🇷🇺 Russia

Lancé Jun 4, 1981 depuis Plesetsk Cosmodrome

Loading…

Prochains Passages (prochaines 24 heures)

TLE

FraisSource: Space-Track

Époque: Sep 14, 2026, 18:46 UTC

1 18637U 81053LX  26257.78263161  .00002653  00000-0  10795-2 0  9998
2 18637  82.9636 192.5268 0043748 217.0531 142.7632 14.26710176109986

Suivez COSMOS 1275 DEB en temps réel avec AllMySat

Download on the App Store